515  
ASUS43 KFSD 221610  
RWRSD  
 
WEATHER ROUNDUP FOR SOUTH DAKOTA  
NATIONAL WEATHER SERVICE SIOUX FALLS SD  
1000 AM CST TUE JAN 22 2019  
 
NOTE: "FAIR" INDICATES FEW OR NO CLOUDS BELOW 12,000 FEET WITH NO  
SIGNIFICANT WEATHER AND/OR S TO VISIBILITY
.  
 
 
SDZ001>005-009-010-012>017-221700-  
NORTHWEST AND NORTH CENTRAL SOUTH DAKOTA  
 
CITY SKY/WX TMP DP RH WIND PRES REMARKS
 
BUFFALO N/A 20 15 81 NW16G25 30.14R WCI 6  
MOBRIDGE LGT SNOW 19 12 74 NW17 30.09R WCI 4  

 
 
SDZ012>016-024>037-041>051-057-063-072>074-221700-  
SOUTHWEST AND SOUTH CENTRAL SOUTH DAKOTA  
 
CITY SKY/WX TMP DP RH WIND PRES REMARKS
 
RAPID CTY ARPT SUNNY 23 16 74 N22G30 30.11R WCI 8  
PIERRE LGT SNOW 17 13 84 NW21G33 30.14R FOG WCI 0  
CUSTER SUNNY 18 7 62 VRB5 30.01R WCI 11  
ELLSWORTH AFB SUNNY 22 21 95 NW23 30.11 WCI 6  
PHILIP LGT SNOW 19 15 84 N16 30.16R FOG WCI 4  
PINE RIDGE CLOUDY 20 15 81 N20G32 30.11R WCI 4  
SPEARFISH N/A N/A N/A N/A MISG N/A  
WINNER LGT SNOW 13 7 77 NW14G25 30.11S WCI -2  

 
 
SDZ004>011-016>023-039-040-221700-  
NORTHEAST SOUTH DAKOTA  
 
CITY SKY/WX TMP DP RH WIND PRES REMARKS
 
ABERDEEN LGT SNOW 11 6 81 NW12 30.12R WCI -3  
WATERTOWN CLOUDY 6 2 83 NW10 30.01R WCI -9  
BROOKINGS MOSUNNY 12 8 84 N12 30.01R WCI -2  
SISSETON N/A 8 5 87 NW14 30.06R WCI -8  

 
 
SDZ017-020-022-023-036>040-048>070-221700-  
SOUTHEAST SOUTH DAKOTA  
 
CITY SKY/WX TMP DP RH WIND PRES REMARKS
 
SIOUX FALLS FLURRIES 19 14 81 N16 30.00R WCI 4  
HURON CLOUDY 11 6 81 N21G28 30.10R WCI -8  
CHAMBERLAIN PTSUNNY 13 9 83 NW17 30.12R WCI -4  
MITCHELL CLOUDY 13 8 81 N17G25 30.10R WCI -4  

 
 
ABBREVIATIONS USED IN REMARKS  
TC - TEMPERATURE IN CELSIUS  
WCI - WIND CHILL INDEX  
HX - HEAT INDEX  
VSB - VISIBILITY  
 
 
 
CLICK HERE TO GO TO PREVIOUS BULLETINS.

The Nexlab SD Page Main Text Page